Tracking 35280 objects as of 7-Sep-2026
HD Live streaming from Space Station
objects crossing your sky now

FALCON 9 R/B

Track FALCON 9 R/B now!
10-day predictions


NORAD ID: 48839
Int'l Code: 2021-049B
Launch date: June 6, 2021
Source: United States (US)
Launch site: AIR FORCE EASTERN TEST RANGE (AFETR)

Note: This is a ROCKET BODY
Your satellite tracking list
Your tracking list is empty




NASA's NSSDC Master Catalog

Two Line Element Set (TLE):
1 48839U 21049B   26249.87210911  .00027386  00000-0  86109-3 0  9993
2 48839  27.0119 108.4068 5084922   6.0941 358.3509  5.58437617 91538
Source of the keplerian elements: AFSPC